Terminal Aerodrome Forecast
Issued by NWS Wilmington, OH

Current Version | Previous Version | Graphics & Text | Print | Product List | Glossary On
Versions: 1 2 3 4 5 6 7 8 9 10 11 12 13 14 15 16 17 18 19 20 21 22 23 24 25 26 27 28 29 30 31
000
FTUS41 KILN 301700
TAFCVG
TAF
KCVG 301731Z 3018/3124 35015G23KT P6SM VCSH BKN040
     FM302100 35011KT P6SM BKN040
     FM302300 35005KT P6SM SCT040
     FM310300 VRB03KT P6SM SKC
     FM311200 19005KT P6SM SCT250
     FM311800 22007KT P6SM BKN250=

USA.gov is the U.S. government's official web portal to all federal, state and local government web resources and services.